Time,TemperatureF,DewpointF,PressureIn,WindDirection,WindDirectionDegrees,WindSpeedMPH,WindSpeedGustMPH,Humidity,HourlyPrecipIn,Conditions,Clouds,dailyrainin,SoftwareType,DateUTC
2013-02-11 00:00:00,63.9,59.8,30.23,ESE,122,0.0,5.0,86,0.00,,,0.00,WUHU216PEETBRO,2013-02-11 05:00:00,
2013-02-11 00:05:00,63.8,59.7,30.22,East,81,3.5,6.3,87,0.00,,,0.00,WUHU216PEETBRO,2013-02-11 05:05:00,
2013-02-11 00:10:00,63.7,59.7,30.22,SE,127,0.0,6.3,87,0.00,,,0.00,WUHU216PEETBRO,2013-02-11 05:10:00,
2013-02-11 00:15:00,63.6,59.8,30.22,East,101,3.1,6.0,87,0.00,,,0.00,WUHU216PEETBRO,2013-02-11 05:15:00,
2013-02-11 00:20:00,63.4,59.7,30.22,South,170,4.7,6.6,88,0.00,,,0.00,WUHU216PEETBRO,2013-02-11 05:20:00,
2013-02-11 00:25:00,63.3,59.7,30.22,SSE,156,0.0,6.6,88,0.00,,,0.00,WUHU216PEETBRO,2013-02-11 05:25:00,
2013-02-11 00:30:00,63.3,59.8,30.22,SSE,151,3.2,6.3,88,0.00,,,0.00,WUHU216PEETBRO,2013-02-11 05:30:00,
2013-02-11 00:35:00,63.1,59.7,30.22,SSE,160,0.0,6.3,89,0.00,,,0.00,WUHU216PEETBRO,2013-02-11 05:35:00,
2013-02-11 00:40:00,63.2,59.9,30.22,SSE,165,0.0,4.8,89,0.00,,,0.00,WUHU216PEETBRO,2013-02-11 05:40:00,
2013-02-11 00:45:00,63.4,60.1,30.21,SSE,152,4.2,8.5,89,0.00,,,0.00,WUHU216PEETBRO,2013-02-11 05:45:00,
2013-02-11 00:50:00,63.4,60.1,30.21,ENE,73,0.0,9.5,89,0.00,,,0.00,WUHU216PEETBRO,2013-02-11 05:50:00,
2013-02-11 00:55:00,63.6,60.2,30.21,SE,145,0.0,9.5,89,0.00,,,0.00,WUHU216PEETBRO,2013-02-11 05:55:00,
2013-02-11 01:00:00,63.7,60.2,30.21,ESE,107,0.0,6.4,89,0.00,,,0.00,WUHU216PEETBRO,2013-02-11 06:00:00,
2013-02-11 01:05:00,63.8,60.3,30.21,SE,146,0.0,5.8,88,0.00,,,0.00,WUHU216PEETBRO,2013-02-11 06:05:00,
2013-02-11 01:10:00,63.7,60.2,30.21,ESE,118,0.0,7.7,88,0.00,,,0.00,WUHU216PEETBRO,2013-02-11 06:10:00,
2013-02-11 01:15:00,63.7,60.2,30.21,ESE,118,0.0,7.7,88,0.00,,,0.00,WUHU216PEETBRO,2013-02-11 06:15:00,
2013-02-11 01:20:00,63.7,60.2,30.21,ESE,107,0.0,5.7,89,0.00,,,0.00,WUHU216PEETBRO,2013-02-11 06:20:00,
2013-02-11 01:25:00,63.8,60.4,30.21,SE,134,0.0,6.6,89,0.00,,,0.00,WUHU216PEETBRO,2013-02-11 06:25:00,
2013-02-11 01:30:00,63.8,60.4,30.20,SSE,167,5.5,6.6,89,0.00,,,0.00,WUHU216PEETBRO,2013-02-11 06:30:00,
2013-02-11 01:35:00,63.7,60.2,30.20,East,95,0.0,6.5,88,0.00,,,0.00,WUHU216PEETBRO,2013-02-11 06:35:00,
2013-02-11 01:40:00,63.7,60.3,30.21,ENE,73,0.0,6.5,89,0.00,,,0.00,WUHU216PEETBRO,2013-02-11 06:40:00,
2013-02-11 01:45:00,63.6,60.2,30.20,ENE,73,0.0,0.0,89,0.00,,,0.00,WUHU216PEETBRO,2013-02-11 06:45:00,
2013-02-11 01:50:00,63.5,60.3,30.20,ENE,73,0.0,0.0,89,0.00,,,0.00,WUHU216PEETBRO,2013-02-11 06:50:00,
2013-02-11 01:55:00,63.5,60.3,30.20,SE,132,0.0,3.1,89,0.00,,,0.00,WUHU216PEETBRO,2013-02-11 06:55:00,
2013-02-11 02:00:00,63.6,60.4,30.20,SSE,151,0.0,3.3,90,0.00,,,0.00,WUHU216PEETBRO,2013-02-11 07:00:00,
2013-02-11 02:05:00,63.6,60.5,30.20,SSE,151,3.5,5.3,90,0.00,,,0.00,WUHU216PEETBRO,2013-02-11 07:05:00,
2013-02-11 02:10:00,63.8,60.7,30.19,East,90,0.0,5.3,90,0.00,,,0.00,WUHU216PEETBRO,2013-02-11 07:10:00,
2013-02-11 02:15:00,63.7,60.6,30.19,East,90,0.0,4.3,90,0.00,,,0.00,WUHU216PEETBRO,2013-02-11 07:15:00,
2013-02-11 02:20:00,63.9,60.7,30.19,SE,138,0.0,7.2,89,0.00,,,0.00,WUHU216PEETBRO,2013-02-11 07:20:00,
2013-02-11 02:26:00,63.9,60.7,30.19,ESE,121,0.0,7.2,89,0.00,,,0.00,WUHU216PEETBRO,2013-02-11 07:26:00,
2013-02-11 02:31:00,64.0,60.7,30.19,ESE,103,0.0,6.4,89,0.00,,,0.00,WUHU216PEETBRO,2013-02-11 07:31:00,
2013-02-11 02:36:00,63.9,60.5,30.19,SSE,162,0.0,8.6,89,0.00,,,0.00,WUHU216PEETBRO,2013-02-11 07:36:00,
2013-02-11 02:41:00,64.0,60.7,30.19,SSE,158,0.0,8.6,89,0.00,,,0.00,WUHU216PEETBRO,2013-02-11 07:41:00,
2013-02-11 02:46:00,63.9,60.6,30.19,SSE,166,0.0,6.0,89,0.00,,,0.00,WUHU216PEETBRO,2013-02-11 07:46:00,
2013-02-11 02:51:00,63.8,60.6,30.19,SE,132,4.5,6.3,89,0.00,,,0.00,WUHU216PEETBRO,2013-02-11 07:51:00,
2013-02-11 02:56:00,63.8,60.6,30.19,ESE,105,0.0,6.3,89,0.00,,,0.00,WUHU216PEETBRO,2013-02-11 07:56:00,
2013-02-11 03:01:00,63.7,60.5,30.19,SSE,158,0.0,4.7,89,0.00,,,0.00,WUHU216PEETBRO,2013-02-11 08:01:00,
2013-02-11 03:06:00,63.6,60.5,30.19,SSE,158,0.0,4.7,90,0.00,,,0.00,WUHU216PEETBRO,2013-02-11 08:06:00,
2013-02-11 03:11:00,63.3,60.3,30.19,SSE,158,0.0,0.0,90,0.00,,,0.00,WUHU216PEETBRO,2013-02-11 08:11:00,
2013-02-11 03:16:00,63.3,60.3,30.19,SSE,158,0.0,0.0,90,0.00,,,0.00,WUHU216PEETBRO,2013-02-11 08:16:00,
2013-02-11 03:21:00,63.1,60.2,30.19,SSE,158,0.0,0.0,90,0.00,,,0.00,WUHU216PEETBRO,2013-02-11 08:21:00,
2013-02-11 03:26:00,63.1,60.2,30.19,SSE,158,0.0,0.0,91,0.00,,,0.00,WUHU216PEETBRO,2013-02-11 08:26:00,
2013-02-11 03:31:00,62.9,60.1,30.19,SSE,158,0.0,0.0,91,0.00,,,0.00,WUHU216PEETBRO,2013-02-11 08:31:00,
2013-02-11 03:36:00,63.0,60.3,30.19,SSE,158,0.0,0.0,91,0.00,,,0.00,WUHU216PEETBRO,2013-02-11 08:36:00,
2013-02-11 03:41:00,63.0,60.2,30.19,SSE,158,0.0,0.0,91,0.00,,,0.00,WUHU216PEETBRO,2013-02-11 08:41:00,
2013-02-11 03:46:00,63.0,60.2,30.19,SSE,158,0.0,0.0,91,0.00,,,0.00,WUHU216PEETBRO,2013-02-11 08:46:00,
2013-02-11 03:51:00,62.9,60.2,30.19,SSE,158,0.0,0.0,91,0.00,,,0.00,WUHU216PEETBRO,2013-02-11 08:51:00,
2013-02-11 03:56:00,62.9,60.2,30.19,SSE,158,0.0,0.0,91,0.00,,,0.00,WUHU216PEETBRO,2013-02-11 08:56:00,
2013-02-11 04:01:00,62.8,60.2,30.19,SSE,158,0.0,0.0,91,0.00,,,0.00,WUHU216PEETBRO,2013-02-11 09:01:00,
2013-02-11 04:06:00,62.7,60.1,30.19,SSE,158,0.0,0.0,91,0.00,,,0.00,WUHU216PEETBRO,2013-02-11 09:06:00,
2013-02-11 04:11:00,62.6,60.1,30.19,SSE,158,0.0,0.0,92,0.00,,,0.00,WUHU216PEETBRO,2013-02-11 09:11:00,
2013-02-11 04:16:00,62.5,60.0,30.19,SSE,158,0.0,0.0,92,0.00,,,0.00,WUHU216PEETBRO,2013-02-11 09:16:00,
2013-02-11 04:21:00,62.4,60.0,30.19,SSE,158,0.0,0.0,92,0.00,,,0.00,WUHU216PEETBRO,2013-02-11 09:21:00,
2013-02-11 04:26:00,62.2,59.8,30.19,SSE,158,0.0,0.0,92,0.00,,,0.00,WUHU216PEETBRO,2013-02-11 09:26:00,
2013-02-11 04:31:00,62.0,59.6,30.19,SSE,158,0.0,0.0,92,0.00,,,0.00,WUHU216PEETBRO,2013-02-11 09:31:00,
2013-02-11 04:36:00,61.8,59.5,30.18,SSE,158,0.0,0.0,92,0.00,,,0.00,WUHU216PEETBRO,2013-02-11 09:36:00,
2013-02-11 04:41:00,61.8,59.5,30.19,SSE,158,0.0,0.0,92,0.00,,,0.00,WUHU216PEETBRO,2013-02-11 09:41:00,
2013-02-11 04:46:00,61.7,59.6,30.18,SSE,158,0.0,0.0,93,0.00,,,0.00,WUHU216PEETBRO,2013-02-11 09:46:00,
2013-02-11 04:51:00,61.7,59.6,30.19,SSE,158,0.0,0.0,93,0.00,,,0.00,WUHU216PEETBRO,2013-02-11 09:51:00,
2013-02-11 04:56:00,61.7,59.6,30.19,SSE,158,0.0,0.0,93,0.00,,,0.00,WUHU216PEETBRO,2013-02-11 09:56:00,
2013-02-11 05:01:00,61.9,59.8,30.20,SSE,158,0.0,0.0,93,0.00,,,0.00,WUHU216PEETBRO,2013-02-11 10:01:00,
2013-02-11 05:06:00,61.8,59.8,30.20,SSE,158,0.0,0.0,93,0.00,,,0.00,WUHU216PEETBRO,2013-02-11 10:06:00,
2013-02-11 05:11:00,61.8,59.7,30.20,SSE,158,0.0,0.0,93,0.00,,,0.00,WUHU216PEETBRO,2013-02-11 10:11:00,
2013-02-11 05:16:00,61.8,59.8,30.21,SSE,158,0.0,0.0,93,0.00,,,0.00,WUHU216PEETBRO,2013-02-11 10:16:00,
2013-02-11 05:21:00,61.6,59.6,30.21,SSE,158,0.0,0.0,93,0.00,,,0.00,WUHU216PEETBRO,2013-02-11 10:21:00,
2013-02-11 05:26:00,61.5,59.5,30.21,SSE,158,0.0,0.0,93,0.00,,,0.00,WUHU216PEETBRO,2013-02-11 10:26:00,
2013-02-11 05:31:00,61.4,59.5,30.21,SSE,158,0.0,0.0,94,0.00,,,0.00,WUHU216PEETBRO,2013-02-11 10:31:00,
2013-02-11 05:36:00,61.1,59.2,30.21,SSE,158,0.0,0.0,94,0.00,,,0.00,WUHU216PEETBRO,2013-02-11 10:36:00,
2013-02-11 05:41:00,61.0,59.2,30.21,SSE,158,0.0,0.0,94,0.00,,,0.00,WUHU216PEETBRO,2013-02-11 10:41:00,
2013-02-11 05:46:00,60.7,58.9,30.21,SSE,158,0.0,0.0,94,0.00,,,0.00,WUHU216PEETBRO,2013-02-11 10:46:00,
2013-02-11 05:51:00,60.6,58.8,30.21,SSE,158,0.0,0.0,94,0.00,,,0.00,WUHU216PEETBRO,2013-02-11 10:51:00,
2013-02-11 05:56:00,60.4,58.6,30.21,SSE,158,0.0,0.0,94,0.00,,,0.00,WUHU216PEETBRO,2013-02-11 10:56:00,
2013-02-11 06:01:00,60.2,58.4,30.21,SSE,158,0.0,0.0,94,0.00,,,0.00,WUHU216PEETBRO,2013-02-11 11:01:00,
2013-02-11 06:06:00,60.0,58.3,30.21,SSE,158,0.0,0.0,94,0.00,,,0.00,WUHU216PEETBRO,2013-02-11 11:06:00,
2013-02-11 06:11:00,59.9,58.2,30.21,SSE,158,0.0,0.0,94,0.00,,,0.00,WUHU216PEETBRO,2013-02-11 11:11:00,
2013-02-11 06:16:00,59.8,58.2,30.22,SSE,158,0.0,0.0,94,0.00,,,0.00,WUHU216PEETBRO,2013-02-11 11:16:00,
2013-02-11 06:21:00,59.8,58.2,30.21,SSE,158,0.0,0.0,95,0.00,,,0.00,WUHU216PEETBRO,2013-02-11 11:21:00,
2013-02-11 06:26:00,60.1,58.7,30.21,SSE,158,0.0,0.0,95,0.00,,,0.00,WUHU216PEETBRO,2013-02-11 11:26:00,
2013-02-11 06:31:00,60.5,59.1,30.21,SSE,158,0.0,0.0,95,0.00,,,0.00,WUHU216PEETBRO,2013-02-11 11:31:00,
2013-02-11 06:36:00,60.6,59.2,30.22,SSE,158,0.0,0.0,95,0.00,,,0.00,WUHU216PEETBRO,2013-02-11 11:36:00,
2013-02-11 06:41:00,60.7,59.3,30.22,SSE,158,0.0,0.0,95,0.00,,,0.00,WUHU216PEETBRO,2013-02-11 11:41:00,
2013-02-11 06:46:00,60.7,59.3,30.22,SSE,158,0.0,0.0,95,0.00,,,0.00,WUHU216PEETBRO,2013-02-11 11:46:00,
2013-02-11 06:51:00,60.7,59.4,30.22,SSE,158,0.0,0.0,96,0.00,,,0.00,WUHU216PEETBRO,2013-02-11 11:51:00,
2013-02-11 06:56:00,60.7,59.4,30.22,SSE,158,0.0,0.0,96,0.00,,,0.00,WUHU216PEETBRO,2013-02-11 11:56:00,
2013-02-11 07:01:00,60.7,59.4,30.22,SSE,158,0.0,0.0,96,0.00,,,0.00,WUHU216PEETBRO,2013-02-11 12:01:00,
2013-02-11 07:06:00,60.7,59.4,30.22,SSE,158,0.0,0.0,96,0.00,,,0.00,WUHU216PEETBRO,2013-02-11 12:06:00,
2013-02-11 07:11:00,60.8,59.6,30.22,SSE,158,0.0,0.0,96,0.00,,,0.00,WUHU216PEETBRO,2013-02-11 12:11:00,
2013-02-11 07:16:00,60.8,59.6,30.22,SSE,158,0.0,0.0,96,0.00,,,0.00,WUHU216PEETBRO,2013-02-11 12:16:00,
2013-02-11 07:21:00,60.9,59.7,30.22,SSE,158,0.0,0.0,96,0.00,,,0.00,WUHU216PEETBRO,2013-02-11 12:21:00,
2013-02-11 07:26:00,61.0,59.8,30.22,SSE,158,0.0,0.0,96,0.00,,,0.00,WUHU216PEETBRO,2013-02-11 12:26:00,
2013-02-11 07:31:00,61.0,59.8,30.22,SSE,158,0.0,0.0,96,0.00,,,0.00,WUHU216PEETBRO,2013-02-11 12:31:00,
2013-02-11 07:36:00,61.1,59.9,30.22,SSE,158,0.0,0.0,96,0.00,,,0.00,WUHU216PEETBRO,2013-02-11 12:36:00,
2013-02-11 07:41:00,61.3,60.1,30.22,SSE,158,0.0,0.0,96,0.00,,,0.00,WUHU216PEETBRO,2013-02-11 12:41:00,
2013-02-11 07:46:00,61.6,60.4,30.22,SSE,158,0.0,0.0,96,0.00,,,0.00,WUHU216PEETBRO,2013-02-11 12:46:00,
2013-02-11 07:51:00,61.7,60.5,30.22,SSE,158,0.0,0.0,96,0.00,,,0.00,WUHU216PEETBRO,2013-02-11 12:51:00,
2013-02-11 07:56:00,62.1,60.8,30.22,SSE,158,0.0,0.0,96,0.00,,,0.00,WUHU216PEETBRO,2013-02-11 12:56:00,
2013-02-11 08:01:00,62.2,60.9,30.22,SSE,158,0.0,0.0,96,0.00,,,0.00,WUHU216PEETBRO,2013-02-11 13:01:00,
2013-02-11 08:06:00,62.5,61.1,30.23,SSE,158,0.0,0.0,95,0.00,,,0.00,WUHU216PEETBRO,2013-02-11 13:06:00,
2013-02-11 08:11:00,62.7,61.2,30.22,SSE,158,0.0,0.0,95,0.00,,,0.00,WUHU216PEETBRO,2013-02-11 13:11:00,
2013-02-11 08:16:00,63.1,61.6,30.22,East,83,7.2,7.5,95,0.00,,,0.00,WUHU216PEETBRO,2013-02-11 13:16:00,
2013-02-11 08:21:00,63.6,62.0,30.23,East,93,0.0,7.5,95,0.00,,,0.00,WUHU216PEETBRO,2013-02-11 13:21:00,
2013-02-11 08:26:00,64.1,62.4,30.23,East,93,0.0,0.0,94,0.00,,,0.00,WUHU216PEETBRO,2013-02-11 13:26:00,
2013-02-11 08:31:00,64.5,62.6,30.23,East,93,0.0,0.0,94,0.00,,,0.00,WUHU216PEETBRO,2013-02-11 13:31:00,
2013-02-11 08:36:00,64.8,62.5,30.23,ESE,115,0.0,7.6,93,0.00,,,0.00,WUHU216PEETBRO,2013-02-11 13:36:00,
2013-02-11 08:41:00,65.1,62.8,30.23,ESE,117,5.9,8.1,92,0.00,,,0.00,WUHU216PEETBRO,2013-02-11 13:41:00,
2013-02-11 08:46:00,65.6,63.2,30.23,ESE,112,3.5,8.1,92,0.00,,,0.00,WUHU216PEETBRO,2013-02-11 13:46:00,
2013-02-11 08:51:00,66.1,63.5,30.24,SE,125,0.0,4.9,92,0.00,,,0.00,WUHU216PEETBRO,2013-02-11 13:51:00,
2013-02-11 08:56:00,66.4,63.4,30.24,SSE,167,2.5,4.9,90,0.00,,,0.00,WUHU216PEETBRO,2013-02-11 13:56:00,
2013-02-11 09:01:00,66.9,63.7,30.24,SE,129,0.0,5.7,90,0.00,,,0.00,WUHU216PEETBRO,2013-02-11 14:01:00,
2013-02-11 09:06:00,67.4,64.1,30.24,ENE,71,3.1,6.5,89,0.00,,,0.00,WUHU216PEETBRO,2013-02-11 14:06:00,
2013-02-11 09:11:00,68.2,64.3,30.24,SE,124,3.4,7.2,87,0.00,,,0.00,WUHU216PEETBRO,2013-02-11 14:11:00,
2013-02-11 09:16:00,68.5,64.2,30.24,South,172,4.7,9.9,86,0.00,,,0.00,WUHU216PEETBRO,2013-02-11 14:16:00,
2013-02-11 09:21:00,69.2,64.1,30.24,ESE,105,3.3,9.9,84,0.00,,,0.00,WUHU216PEETBRO,2013-02-11 14:21:00,
2013-02-11 09:26:00,69.5,64.3,30.24,ENE,73,5.1,11.1,83,0.00,,,0.00,WUHU216PEETBRO,2013-02-11 14:26:00,
2013-02-11 09:31:00,70.0,64.6,30.24,South,173,7.0,11.1,83,0.00,,,0.00,WUHU216PEETBRO,2013-02-11 14:31:00,
2013-02-11 09:36:00,70.5,64.9,30.24,SE,128,8.1,10.7,82,0.00,,,0.00,WUHU216PEETBRO,2013-02-11 14:36:00,
2013-02-11 09:41:00,70.8,64.9,30.23,East,101,7.3,12.3,82,0.00,,,0.00,WUHU216PEETBRO,2013-02-11 14:41:00,
2013-02-11 09:46:00,71.2,64.9,30.23,SSE,165,10.7,14.4,80,0.00,,,0.00,WUHU216PEETBRO,2013-02-11 14:46:00,
2013-02-11 09:51:00,71.5,65.4,30.24,East,81,7.4,14.4,81,0.00,,,0.00,WUHU216PEETBRO,2013-02-11 14:51:00,
2013-02-11 09:56:00,71.9,65.4,30.24,SE,146,10.1,12.9,80,0.00,,,0.00,WUHU216PEETBRO,2013-02-11 14:56:00,
2013-02-11 10:01:00,72.4,65.3,30.24,SE,131,6.5,15.2,78,0.00,,,0.00,WUHU216PEETBRO,2013-02-11 15:01:00,
2013-02-11 10:06:00,72.3,65.0,30.23,ESE,107,6.6,15.2,78,0.00,,,0.00,WUHU216PEETBRO,2013-02-11 15:06:00,
2013-02-11 10:11:00,72.5,65.4,30.23,SSE,163,6.5,16.3,78,0.00,,,0.00,WUHU216PEETBRO,2013-02-11 15:11:00,
2013-02-11 10:16:00,72.8,65.4,30.23,South,179,7.8,16.3,77,0.00,,,0.00,WUHU216PEETBRO,2013-02-11 15:16:00,
2013-02-11 10:21:00,73.2,65.7,30.23,SSE,160,11.9,15.2,77,0.00,,,0.00,WUHU216PEETBRO,2013-02-11 15:21:00,
2013-02-11 10:26:00,73.5,65.5,30.23,SE,136,8.0,15.1,76,0.00,,,0.00,WUHU216PEETBRO,2013-02-11 15:26:00,
2013-02-11 10:31:00,73.7,65.8,30.23,SE,138,10.1,15.1,76,0.00,,,0.00,WUHU216PEETBRO,2013-02-11 15:31:00,
2013-02-11 10:36:00,73.9,65.5,30.23,SE,131,12.4,14.9,75,0.00,,,0.00,WUHU216PEETBRO,2013-02-11 15:36:00,
2013-02-11 10:41:00,74.5,66.0,30.22,SE,145,5.5,13.9,74,0.00,,,0.00,WUHU216PEETBRO,2013-02-11 15:41:00,
2013-02-11 10:46:00,75.0,66.1,30.22,South,170,14.6,14.6,73,0.00,,,0.00,WUHU216PEETBRO,2013-02-11 15:46:00,
2013-02-11 10:51:00,75.1,65.1,30.22,SE,136,12.4,14.6,71,0.00,,,0.00,WUHU216PEETBRO,2013-02-11 15:51:00,
2013-02-11 10:56:00,75.1,65.6,30.22,SSE,151,10.9,15.3,72,0.00,,,0.00,WUHU216PEETBRO,2013-02-11 15:56:00,
2013-02-11 11:01:00,75.1,65.4,30.22,SE,138,10.0,15.3,71,0.00,,,0.00,WUHU216PEETBRO,2013-02-11 16:01:00,
2013-02-11 11:06:00,75.3,66.1,30.22,SE,141,6.0,13.7,73,0.00,,,0.00,WUHU216PEETBRO,2013-02-11 16:06:00,
2013-02-11 11:11:00,75.8,66.4,30.22,SSE,149,7.8,12.9,72,0.00,,,0.00,WUHU216PEETBRO,2013-02-11 16:11:00,
2013-02-11 11:16:00,76.0,65.3,30.22,NNE,33,10.2,13.1,69,0.00,,,0.00,WUHU216PEETBRO,2013-02-11 16:16:00,
2013-02-11 11:21:00,75.8,65.4,30.22,SSE,165,12.2,14.0,70,0.00,,,0.00,WUHU216PEETBRO,2013-02-11 16:21:00,
2013-02-11 11:26:00,76.1,65.2,30.21,South,169,8.8,14.0,68,0.00,,,0.00,WUHU216PEETBRO,2013-02-11 16:26:00,
2013-02-11 11:31:00,76.3,65.5,30.21,SE,132,5.2,11.6,69,0.00,,,0.00,WUHU216PEETBRO,2013-02-11 16:31:00,
2013-02-11 11:36:00,76.2,66.0,30.21,SSE,167,8.5,14.4,70,0.00,,,0.00,WUHU216PEETBRO,2013-02-11 16:36:00,
2013-02-11 11:41:00,76.3,66.4,30.20,SSE,155,8.9,14.4,71,0.00,,,0.00,WUHU216PEETBRO,2013-02-11 16:41:00,
2013-02-11 11:46:00,76.7,66.6,30.20,South,186,9.6,18.9,70,0.00,,,0.00,WUHU216PEETBRO,2013-02-11 16:46:00,
2013-02-11 11:51:00,76.8,66.8,30.20,North,1,4.1,18.9,71,0.00,,,0.00,WUHU216PEETBRO,2013-02-11 16:51:00,
2013-02-11 11:56:00,76.9,66.6,30.20,SE,146,10.6,15.1,70,0.00,,,0.00,WUHU216PEETBRO,2013-02-11 16:56:00,
2013-02-11 12:01:00,77.3,67.2,30.19,SE,128,9.1,15.1,71,0.00,,,0.00,WUHU216PEETBRO,2013-02-11 17:01:00,
2013-02-11 12:06:00,78.0,67.6,30.19,SSE,152,6.6,13.1,70,0.00,,,0.00,WUHU216PEETBRO,2013-02-11 17:06:00,
2013-02-11 12:11:00,77.9,67.5,30.19,SSE,160,6.8,14.7,70,0.00,,,0.00,WUHU216PEETBRO,2013-02-11 17:11:00,
2013-02-11 12:16:00,78.2,67.8,30.19,SE,132,5.8,14.7,70,0.00,,,0.00,WUHU216PEETBRO,2013-02-11 17:16:00,
2013-02-11 12:21:00,78.4,67.9,30.19,SW,217,9.9,12.1,70,0.00,,,0.00,WUHU216PEETBRO,2013-02-11 17:21:00,
2013-02-11 12:26:00,78.4,67.8,30.19,South,173,4.9,12.1,70,0.00,,,0.00,WUHU216PEETBRO,2013-02-11 17:26:00,
2013-02-11 12:31:00,78.8,68.1,30.18,SE,132,6.3,14.5,69,0.00,,,0.00,WUHU216PEETBRO,2013-02-11 17:31:00,
2013-02-11 12:36:00,78.7,68.2,30.18,SSE,165,9.6,14.5,70,0.00,,,0.00,WUHU216PEETBRO,2013-02-11 17:36:00,
2013-02-11 12:41:00,78.3,68.2,30.18,SSE,149,11.4,12.1,71,0.00,,,0.00,WUHU216PEETBRO,2013-02-11 17:41:00,
2013-02-11 12:46:00,78.2,68.5,30.17,SE,139,4.2,12.1,72,0.00,,,0.00,WUHU216PEETBRO,2013-02-11 17:46:00,
2013-02-11 12:51:00,78.7,68.8,30.17,SSW,208,13.0,13.0,71,0.00,,,0.00,WUHU216PEETBRO,2013-02-11 17:51:00,
2013-02-11 12:56:00,79.0,68.7,30.17,SE,145,8.6,13.9,70,0.00,,,0.00,WUHU216PEETBRO,2013-02-11 17:56:00,
2013-02-11 13:01:00,79.1,68.9,30.16,SE,132,7.8,13.9,70,0.00,,,0.00,WUHU216PEETBRO,2013-02-11 18:01:00,
2013-02-11 13:06:00,79.1,69.5,30.16,SSE,160,6.1,13.4,72,0.00,,,0.00,WUHU216PEETBRO,2013-02-11 18:06:00,
2013-02-11 13:11:00,79.4,69.5,30.16,SSE,152,7.8,9.5,71,0.00,,,0.00,WUHU216PEETBRO,2013-02-11 18:11:00,
2013-02-11 13:16:00,79.1,69.6,30.16,South,176,8.6,9.6,72,0.00,,,0.00,WUHU216PEETBRO,2013-02-11 18:16:00,
2013-02-11 13:21:00,79.4,69.7,30.15,SSW,200,6.5,11.2,72,0.00,,,0.00,WUHU216PEETBRO,2013-02-11 18:21:00,
2013-02-11 13:26:00,79.7,70.2,30.15,SSE,151,8.2,11.2,72,0.00,,,0.00,WUHU216PEETBRO,2013-02-11 18:26:00,
2013-02-11 13:31:00,79.9,70.0,30.15,SW,217,5.2,10.7,71,0.00,,,0.00,WUHU216PEETBRO,2013-02-11 18:31:00,
2013-02-11 13:36:00,79.3,69.8,30.14,SSW,213,7.5,13.9,72,0.00,,,0.00,WUHU216PEETBRO,2013-02-11 18:36:00,
2013-02-11 13:41:00,79.4,69.8,30.14,SE,141,12.6,14.3,72,0.00,,,0.00,WUHU216PEETBRO,2013-02-11 18:41:00,
2013-02-11 13:46:00,79.3,69.6,30.14,West,279,5.6,14.3,72,0.00,,,0.00,WUHU216PEETBRO,2013-02-11 18:46:00,
2013-02-11 13:51:00,79.3,69.6,30.14,SSE,149,3.2,12.1,72,0.00,,,0.00,WUHU216PEETBRO,2013-02-11 18:51:00,
2013-02-11 13:56:00,79.4,69.5,30.14,SE,146,6.6,12.0,71,0.00,,,0.00,WUHU216PEETBRO,2013-02-11 18:56:00,
2013-02-11 14:01:00,79.5,69.9,30.13,SSE,166,5.0,12.0,72,0.00,,,0.00,WUHU216PEETBRO,2013-02-11 19:01:00,
2013-02-11 14:06:00,79.9,69.8,30.13,East,101,11.2,15.0,71,0.00,,,0.00,WUHU216PEETBRO,2013-02-11 19:06:00,
2013-02-11 14:11:00,80.0,69.7,30.13,SE,139,4.2,16.4,70,0.00,,,0.00,WUHU216PEETBRO,2013-02-11 19:11:00,
2013-02-11 14:17:00,80.3,69.7,30.13,ESE,110,7.6,13.0,70,0.00,,,0.00,WUHU216PEETBRO,2013-02-11 19:17:00,
2013-02-11 14:22:00,80.3,69.9,30.13,SSW,203,7.1,13.0,70,0.00,,,0.00,WUHU216PEETBRO,2013-02-11 19:22:00,
2013-02-11 14:27:00,80.4,69.6,30.13,SSE,156,5.5,10.4,69,0.00,,,0.00,WUHU216PEETBRO,2013-02-11 19:27:00,
2013-02-11 14:32:00,80.4,69.5,30.13,SE,143,3.3,10.4,69,0.00,,,0.00,WUHU216PEETBRO,2013-02-11 19:32:00,
2013-02-11 14:37:00,80.0,69.0,30.12,SSE,153,7.0,11.5,69,0.00,,,0.00,WUHU216PEETBRO,2013-02-11 19:37:00,
2013-02-11 14:42:00,80.2,69.3,30.12,SE,143,7.5,13.8,69,0.00,,,0.00,WUHU216PEETBRO,2013-02-11 19:42:00,
2013-02-11 14:47:00,80.3,68.4,30.12,South,175,8.7,13.8,67,0.00,,,0.00,WUHU216PEETBRO,2013-02-11 19:47:00,
2013-02-11 14:52:00,80.7,69.0,30.12,SW,221,10.5,11.7,67,0.00,,,0.00,WUHU216PEETBRO,2013-02-11 19:52:00,
2013-02-11 14:57:00,81.1,68.6,30.12,SSW,200,6.2,13.2,65,0.00,,,0.00,WUHU216PEETBRO,2013-02-11 19:57:00,
2013-02-11 15:02:00,81.0,68.3,30.12,WSW,241,4.3,13.2,65,0.00,,,0.00,WUHU216PEETBRO,2013-02-11 20:02:00,
2013-02-11 15:07:00,80.9,68.8,30.12,WSW,239,5.6,11.7,66,0.00,,,0.00,WUHU216PEETBRO,2013-02-11 20:07:00,
2013-02-11 15:12:00,80.5,68.6,30.11,South,175,6.3,9.4,67,0.00,,,0.00,WUHU216PEETBRO,2013-02-11 20:12:00,
2013-02-11 15:17:00,80.5,68.8,30.11,SSE,149,4.2,8.3,67,0.00,,,0.00,WUHU216PEETBRO,2013-02-11 20:17:00,
2013-02-11 15:22:00,80.5,68.5,30.11,South,183,6.1,9.9,66,0.00,,,0.00,WUHU216PEETBRO,2013-02-11 20:22:00,
2013-02-11 15:28:00,80.4,68.5,30.11,SE,143,4.2,10.9,67,0.00,,,0.00,WUHU216PEETBRO,2013-02-11 20:28:00,
2013-02-11 15:33:00,80.3,68.3,30.11,SE,141,8.0,10.9,66,0.00,,,0.00,WUHU216PEETBRO,2013-02-11 20:33:00,
2013-02-11 15:38:00,80.5,68.1,30.11,SSE,151,8.4,11.2,65,0.00,,,0.00,WUHU216PEETBRO,2013-02-11 20:38:00,
2013-02-11 15:43:00,80.3,68.0,30.11,South,170,5.7,11.2,66,0.00,,,0.00,WUHU216PEETBRO,2013-02-11 20:43:00,
2013-02-11 15:48:00,80.3,67.8,30.11,South,191,3.4,12.2,65,0.00,,,0.00,WUHU216PEETBRO,2013-02-11 20:48:00,
2013-02-11 15:53:00,80.2,67.3,30.11,SSE,153,7.6,12.2,64,0.00,,,0.00,WUHU216PEETBRO,2013-02-11 20:53:00,
2013-02-11 15:58:00,80.4,67.6,30.11,SSE,152,5.5,11.2,65,0.00,,,0.00,WUHU216PEETBRO,2013-02-11 20:58:00,
2013-02-11 16:03:00,80.3,67.4,30.11,SE,136,4.7,12.8,64,0.00,,,0.00,WUHU216PEETBRO,2013-02-11 21:03:00,
2013-02-11 16:08:00,80.1,67.4,30.11,SSE,163,6.2,12.8,65,0.00,,,0.00,WUHU216PEETBRO,2013-02-11 21:08:00,
2013-02-11 16:13:00,80.1,67.1,30.11,SSW,193,6.0,9.9,64,0.00,,,0.00,WUHU216PEETBRO,2013-02-11 21:13:00,
2013-02-11 16:18:00,80.0,66.6,30.11,NNE,32,2.4,9.9,63,0.00,,,0.00,WUHU216PEETBRO,2013-02-11 21:18:00,
2013-02-11 16:23:00,79.9,66.3,30.11,South,175,7.5,8.7,63,0.00,,,0.00,WUHU216PEETBRO,2013-02-11 21:23:00,
2013-02-11 16:28:00,79.7,66.2,30.10,SE,143,7.3,10.9,63,0.00,,,0.00,WUHU216PEETBRO,2013-02-11 21:28:00,
2013-02-11 16:33:00,79.8,66.2,30.10,SSE,149,6.2,11.9,63,0.00,,,0.00,WUHU216PEETBRO,2013-02-11 21:33:00,
2013-02-11 16:38:00,80.0,65.9,30.10,SSE,166,5.6,11.9,62,0.00,,,0.00,WUHU216PEETBRO,2013-02-11 21:38:00,
2013-02-11 16:43:00,80.1,65.8,30.10,SSE,167,8.6,13.2,61,0.00,,,0.00,WUHU216PEETBRO,2013-02-11 21:43:00,
2013-02-11 16:48:00,80.2,65.8,30.10,SSE,151,8.5,13.2,61,0.00,,,0.00,WUHU216PEETBRO,2013-02-11 21:48:00,
2013-02-11 16:53:00,80.0,65.4,30.10,SE,143,3.4,9.9,61,0.00,,,0.00,WUHU216PEETBRO,2013-02-11 21:53:00,
2013-02-11 16:58:00,80.2,65.7,30.10,SE,135,0.0,9.9,61,0.00,,,0.00,WUHU216PEETBRO,2013-02-11 21:58:00,
2013-02-11 17:03:00,79.9,65.1,30.10,South,173,2.4,8.4,60,0.00,,,0.00,WUHU216PEETBRO,2013-02-11 22:03:00,
2013-02-11 17:08:00,79.8,64.7,30.10,SSW,196,7.0,8.4,60,0.00,,,0.00,WUHU216PEETBRO,2013-02-11 22:08:00,
2013-02-11 17:13:00,79.8,64.2,30.10,South,180,3.2,7.6,59,0.00,,,0.00,WUHU216PEETBRO,2013-02-11 22:13:00,
2013-02-11 17:18:00,79.7,64.0,30.10,South,183,3.5,8.1,58,0.00,,,0.00,WUHU216PEETBRO,2013-02-11 22:18:00,
2013-02-11 17:23:00,79.5,63.6,30.10,SE,143,2.8,8.1,58,0.00,,,0.00,WUHU216PEETBRO,2013-02-11 22:23:00,
2013-02-11 17:28:00,79.5,63.4,30.10,SE,132,0.0,7.9,58,0.00,,,0.00,WUHU216PEETBRO,2013-02-11 22:28:00,
2013-02-11 17:33:00,79.3,62.8,30.10,SSE,160,5.8,9.3,57,0.00,,,0.00,WUHU216PEETBRO,2013-02-11 22:33:00,
2013-02-11 17:38:00,79.3,62.6,30.10,SSE,153,3.4,9.3,56,0.00,,,0.00,WUHU216PEETBRO,2013-02-11 22:38:00,
2013-02-11 17:43:00,79.3,62.5,30.10,SSE,160,0.0,8.8,56,0.00,,,0.00,WUHU216PEETBRO,2013-02-11 22:43:00,
2013-02-11 17:48:00,79.1,62.1,30.10,SE,141,3.4,7.0,56,0.00,,,0.00,WUHU216PEETBRO,2013-02-11 22:48:00,
2013-02-11 17:53:00,78.9,61.7,30.10,ESE,115,0.0,7.0,55,0.00,,,0.00,WUHU216PEETBRO,2013-02-11 22:53:00,
2013-02-11 17:58:00,78.8,61.5,30.10,SE,131,0.0,7.0,55,0.00,,,0.00,WUHU216PEETBRO,2013-02-11 22:58:00,
2013-02-11 18:03:00,78.7,61.1,30.10,South,173,5.4,7.0,55,0.00,,,0.00,WUHU216PEETBRO,2013-02-11 23:03:00,
2013-02-11 18:08:00,78.5,60.8,30.10,SSE,163,0.0,5.4,54,0.00,,,0.00,WUHU216PEETBRO,2013-02-11 23:08:00,
2013-02-11 18:13:00,78.3,60.5,30.11,ESE,107,4.2,5.4,54,0.00,,,0.00,WUHU216PEETBRO,2013-02-11 23:13:00,
2013-02-11 18:18:00,78.1,60.4,30.11,ESE,108,0.0,4.2,54,0.00,,,0.00,WUHU216PEETBRO,2013-02-11 23:18:00,
2013-02-11 18:23:00,77.9,60.0,30.11,ESE,108,0.0,3.3,54,0.00,,,0.00,WUHU216PEETBRO,2013-02-11 23:23:00,
2013-02-11 18:28:00,77.7,59.8,30.11,ESE,108,0.0,0.0,54,0.00,,,0.00,WUHU216PEETBRO,2013-02-11 23:28:00,
2013-02-11 18:33:00,77.4,59.4,30.11,ESE,108,0.0,0.0,54,0.00,,,0.00,WUHU216PEETBRO,2013-02-11 23:33:00,
2013-02-11 18:38:00,77.3,59.2,30.11,ESE,108,0.0,0.0,53,0.00,,,0.00,WUHU216PEETBRO,2013-02-11 23:38:00,
2013-02-11 18:43:00,77.1,58.9,30.11,ESE,108,0.0,0.0,53,0.00,,,0.00,WUHU216PEETBRO,2013-02-11 23:43:00,
2013-02-11 18:48:00,76.9,58.6,30.11,ESE,108,0.0,0.0,53,0.00,,,0.00,WUHU216PEETBRO,2013-02-11 23:48:00,
2013-02-11 18:53:00,76.8,58.5,30.11,ESE,108,0.0,0.0,53,0.00,,,0.00,WUHU216PEETBRO,2013-02-11 23:53:00,
2013-02-11 18:58:00,76.5,58.1,30.11,ESE,108,0.0,0.0,53,0.00,,,0.00,WUHU216PEETBRO,2013-02-11 23:58:00,
2013-02-11 19:03:00,76.4,58.1,30.11,ESE,108,0.0,0.0,53,0.00,,,0.00,WUHU216PEETBRO,2013-02-12 00:03:00,
2013-02-11 19:08:00,76.2,58.0,30.12,ESE,108,0.0,0.0,53,0.00,,,0.00,WUHU216PEETBRO,2013-02-12 00:08:00,
2013-02-11 19:13:00,76.0,58.0,30.12,East,90,0.0,0.0,54,0.00,,,0.00,WUHU216PEETBRO,2013-02-12 00:13:00,
2013-02-11 19:18:00,75.8,58.1,30.12,East,84,0.0,3.5,54,0.00,,,0.00,WUHU216PEETBRO,2013-02-12 00:18:00,
2013-02-11 19:23:00,75.7,58.5,30.12,SE,135,6.3,8.2,55,0.00,,,0.00,WUHU216PEETBRO,2013-02-12 00:23:00,
2013-02-11 19:28:00,74.9,60.0,30.12,East,98,3.5,8.9,60,0.00,,,0.00,WUHU216PEETBRO,2013-02-12 00:28:00,
2013-02-11 19:33:00,74.1,60.7,30.13,ESE,110,3.4,8.9,63,0.00,,,0.00,WUHU216PEETBRO,2013-02-12 00:33:00,
2013-02-11 19:38:00,73.5,61.4,30.13,ENE,59,3.0,8.6,65,0.00,,,0.00,WUHU216PEETBRO,2013-02-12 00:38:00,
2013-02-11 19:43:00,73.0,61.8,30.13,East,79,0.0,8.6,68,0.00,,,0.00,WUHU216PEETBRO,2013-02-12 00:43:00,
2013-02-11 19:48:00,72.6,62.1,30.13,SE,134,6.1,8.1,69,0.00,,,0.00,WUHU216PEETBRO,2013-02-12 00:48:00,
2013-02-11 19:53:00,72.3,62.6,30.13,East,84,0.0,8.1,71,0.00,,,0.00,WUHU216PEETBRO,2013-02-12 00:53:00,
2013-02-11 19:58:00,72.0,62.9,30.13,SE,145,5.2,7.5,73,0.00,,,0.00,WUHU216PEETBRO,2013-02-12 00:58:00,
2013-02-11 20:03:00,71.8,63.2,30.13,ENE,60,0.0,6.9,74,0.00,,,0.00,WUHU216PEETBRO,2013-02-12 01:03:00,
2013-02-11 20:08:00,71.5,63.3,30.14,SE,138,4.4,6.2,75,0.00,,,0.00,WUHU216PEETBRO,2013-02-12 01:08:00,
2013-02-11 20:13:00,71.5,63.6,30.14,East,100,4.3,7.1,76,0.00,,,0.00,WUHU216PEETBRO,2013-02-12 01:13:00,
2013-02-11 20:18:00,71.3,63.8,30.13,ESE,111,3.4,7.1,77,0.00,,,0.00,WUHU216PEETBRO,2013-02-12 01:18:00,
2013-02-11 20:23:00,71.3,64.0,30.14,East,100,3.5,8.4,78,0.00,,,0.00,WUHU216PEETBRO,2013-02-12 01:23:00,
2013-02-11 20:28:00,71.2,64.3,30.14,SE,128,0.0,8.4,79,0.00,,,0.00,WUHU216PEETBRO,2013-02-12 01:28:00,
2013-02-11 20:33:00,71.0,64.1,30.14,ESE,103,0.0,7.0,79,0.00,,,0.00,WUHU216PEETBRO,2013-02-12 01:33:00,
2013-02-11 20:38:00,71.0,64.5,30.14,NE,47,4.2,7.7,80,0.00,,,0.00,WUHU216PEETBRO,2013-02-12 01:38:00,
2013-02-11 20:43:00,71.0,64.6,30.14,SE,143,0.0,7.7,80,0.00,,,0.00,WUHU216PEETBRO,2013-02-12 01:43:00,
2013-02-11 20:48:00,70.9,64.6,30.13,ESE,118,0.0,7.3,80,0.00,,,0.00,WUHU216PEETBRO,2013-02-12 01:48:00,
2013-02-11 20:53:00,70.8,64.7,30.14,ESE,119,5.2,7.5,81,0.00,,,0.00,WUHU216PEETBRO,2013-02-12 01:53:00,
2013-02-11 20:58:00,70.7,64.7,30.14,East,90,0.0,7.5,81,0.00,,,0.00,WUHU216PEETBRO,2013-02-12 01:58:00,
2013-02-11 21:03:00,70.6,64.8,30.13,East,80,4.6,7.5,82,0.00,,,0.00,WUHU216PEETBRO,2013-02-12 02:03:00,
2013-02-11 21:08:00,70.6,64.9,30.14,SE,135,0.0,8.9,82,0.00,,,0.00,WUHU216PEETBRO,2013-02-12 02:08:00,
2013-02-11 21:14:00,70.6,65.0,30.14,SSE,148,3.2,8.9,82,0.00,,,0.00,WUHU216PEETBRO,2013-02-12 02:14:00,
2013-02-11 21:19:00,70.5,64.9,30.13,SE,131,6.5,8.5,82,0.00,,,0.00,WUHU216PEETBRO,2013-02-12 02:19:00,
2013-02-11 21:24:00,70.4,64.9,30.14,ESE,111,0.0,8.5,83,0.00,,,0.00,WUHU216PEETBRO,2013-02-12 02:24:00,
2013-02-11 21:29:00,70.4,65.0,30.14,South,184,0.0,8.8,83,0.00,,,0.00,WUHU216PEETBRO,2013-02-12 02:29:00,
2013-02-11 21:34:00,70.3,65.0,30.14,ESE,115,6.3,9.8,83,0.00,,,0.00,WUHU216PEETBRO,2013-02-12 02:34:00,
2013-02-11 21:39:00,70.2,64.9,30.14,SE,139,6.8,9.8,83,0.00,,,0.00,WUHU216PEETBRO,2013-02-12 02:39:00,
2013-02-11 21:44:00,70.1,64.9,30.14,SSE,160,6.1,11.1,83,0.00,,,0.00,WUHU216PEETBRO,2013-02-12 02:44:00,
2013-02-11 21:49:00,70.2,64.9,30.14,SE,127,4.6,11.1,83,0.00,,,0.00,WUHU216PEETBRO,2013-02-12 02:49:00,
2013-02-11 21:54:00,70.3,65.0,30.14,SSE,162,8.5,10.9,83,0.00,,,0.00,WUHU216PEETBRO,2013-02-12 02:54:00,
2013-02-11 21:59:00,70.3,64.9,30.14,SE,124,13.9,13.9,83,0.00,,,0.00,WUHU216PEETBRO,2013-02-12 02:59:00,
2013-02-11 22:04:00,70.3,64.9,30.14,South,184,4.7,13.9,83,0.00,,,0.00,WUHU216PEETBRO,2013-02-12 03:04:00,
2013-02-11 22:09:00,70.2,64.8,30.14,ENE,76,8.3,12.0,83,0.00,,,0.00,WUHU216PEETBRO,2013-02-12 03:09:00,
2013-02-11 22:14:00,70.2,64.9,30.13,ESE,122,1.1,9.6,83,0.00,,,0.00,WUHU216PEETBRO,2013-02-12 03:14:00,
2013-02-11 22:19:00,70.1,64.9,30.13,South,180,6.0,10.3,84,0.00,,,0.00,WUHU216PEETBRO,2013-02-12 03:19:00,
2013-02-11 22:24:00,70.0,64.9,30.13,East,86,3.2,10.3,84,0.00,,,0.00,WUHU216PEETBRO,2013-02-12 03:24:00,
2013-02-11 22:29:00,69.8,64.7,30.13,SSE,158,4.3,8.7,84,0.00,,,0.00,WUHU216PEETBRO,2013-02-12 03:29:00,
2013-02-11 22:34:00,69.8,64.9,30.13,SSE,151,7.8,8.7,84,0.00,,,0.00,WUHU216PEETBRO,2013-02-12 03:34:00,
2013-02-11 22:39:00,69.6,64.9,30.13,East,100,0.0,9.6,85,0.00,,,0.00,WUHU216PEETBRO,2013-02-12 03:39:00,
2013-02-11 22:44:00,69.5,64.8,30.13,South,186,5.5,12.6,85,0.00,,,0.00,WUHU216PEETBRO,2013-02-12 03:44:00,
2013-02-11 22:49:00,69.5,64.8,30.13,SE,136,6.0,12.6,85,0.00,,,0.00,WUHU216PEETBRO,2013-02-12 03:49:00,
2013-02-11 22:54:00,69.4,64.8,30.13,ESE,121,10.2,10.5,85,0.00,,,0.00,WUHU216PEETBRO,2013-02-12 03:54:00,
2013-02-11 22:59:00,69.6,64.9,30.13,ENE,64,4.8,10.5,85,0.00,,,0.00,WUHU216PEETBRO,2013-02-12 03:59:00,
2013-02-11 23:04:00,69.7,65.0,30.13,SSE,148,8.3,10.4,85,0.00,,,0.00,WUHU216PEETBRO,2013-02-12 04:04:00,
2013-02-11 23:09:00,69.7,64.9,30.14,SE,128,4.7,10.4,85,0.00,,,0.00,WUHU216PEETBRO,2013-02-12 04:09:00,
2013-02-11 23:14:00,69.7,64.9,30.13,SSE,167,4.7,9.8,85,0.00,,,0.00,WUHU216PEETBRO,2013-02-12 04:14:00,
2013-02-11 23:19:00,69.7,64.9,30.13,SSE,159,7.1,9.3,85,0.00,,,0.00,WUHU216PEETBRO,2013-02-12 04:19:00,
2013-02-11 23:24:00,69.6,64.8,30.13,SSE,159,4.3,9.3,85,0.00,,,0.00,WUHU216PEETBRO,2013-02-12 04:24:00,
2013-02-11 23:29:00,69.7,64.8,30.13,SSE,151,3.4,10.7,84,0.00,,,0.00,WUHU216PEETBRO,2013-02-12 04:29:00,
2013-02-11 23:34:00,69.7,64.8,30.13,SSE,160,6.3,10.7,84,0.00,,,0.00,WUHU216PEETBRO,2013-02-12 04:34:00,
2013-02-11 23:39:00,69.7,64.8,30.13,SSE,153,0.0,9.5,84,0.00,,,0.00,WUHU216PEETBRO,2013-02-12 04:39:00,
2013-02-11 23:44:00,69.7,64.8,30.13,ESE,117,7.0,9.5,84,0.00,,,0.00,WUHU216PEETBRO,2013-02-12 04:44:00,
2013-02-11 23:49:00,69.8,65.0,30.13,SSE,167,5.7,8.2,85,0.00,,,0.00,WUHU216PEETBRO,2013-02-12 04:49:00,
2013-02-11 23:54:00,69.7,64.8,30.13,SSE,160,4.7,9.0,84,0.00,,,0.00,WUHU216PEETBRO,2013-02-12 04:54:00,
2013-02-11 23:59:00,69.8,64.9,30.13,SSE,151,5.4,9.9,84,0.00,,,0.00,WUHU216PEETBRO,2013-02-12 04:59:00,